Regional Weather Roundup
Issued by NWS Kansas City/Pleasant Hill, MO

Home | Current Version | Previous Version | Graphics & Text | Print | Product List | Glossary Off
Versions: 1 2 3 4 5 6 7 8 9 10 11 12 13 14 15 16 17 18 19 20 21 22 23 24 25 26 27 28 29 30 31 32 33 34 35 36 37 38 39 40 41 42 43 44 45 46 47 48 49 50

000
ASUS43 KEAX 131810
RWREAX

WEATHER ROUNDUP FOR EASTERN KANSAS AND NORTHWEST MISSOURI
NATIONAL WEATHER SERVICE KANSAS CITY/PLEASANT HILL MO
100 PM CDT SUN JUL 13 2014

KSZ040-057-103>105-MOZ028-029-037-043-131900-
...KANSAS CITY METROPOLITAN AREA...

CITY           SKY/WX    TMP DP  RH WIND       PRES   REMARKS
K.C. INTL      PTSUNNY   81  73  76 N8        30.03F
6HR MIN TEMP:  70; 6HR MAX TEMP:  82; 6HR PCP:  0.06;

K.C. DOWNTOWN  MOSUNNY   84  74  71 VRB7      30.01F HX  91
6HR MIN TEMP:  72; 6HR MAX TEMP:  84; 6HR PCP:  0.16;

LEES SUMMIT    PTSUNNY   83  72  69 NW9       30.02F
6HR MIN TEMP:  72; 6HR MAX TEMP:  84; 6HR PCP:  0.01;

OLATHE - IXD   CLOUDY    81  71  71 NW7       30.03F
6HR MIN TEMP:  72; 6HR MAX TEMP:  83; 6HR PCP:  0.11;

OLATHE - OJC   CLOUDY    83  71  67 NE5       30.02F
6HR MIN TEMP:  71; 6HR MAX TEMP:  84; 6HR PCP:  0.14;

LAWRENCE       PTSUNNY   87  72  60 N6        30.02F HX  93

$$

MOZ001>008-011>017-020>025-030>033-038>040-044>046-053-054-131900-
...NORTHERN AND CENTRAL MISSOURI...

CITY           SKY/WX    TMP DP  RH WIND       PRES   REMARKS
ST. JOSEPH     MOSUNNY   82  71  69 N6        30.04S
6HR MIN TEMP:  71; 6HR MAX TEMP:  83;

MOSBY          MOCLDY    81  72  74 N10       30.02F
WHITEMAN AFB   PTSUNNY   78  65  63 CALM      30.01F
6HR MIN TEMP:  75; 6HR MAX TEMP:  78; 6HR PCP:  0.01;

CLINTON        PTSUNNY   82  73  74 CALM      30.02R
SEDALIA        PTSUNNY   82  72  71 CALM      30.02F
6HR MIN TEMP:  75; 6HR MAX TEMP:  82; 6HR PCP: TRACE;

WARSAW         NOT AVBL
MARSHALL         N/A     84  73  70 W6        30.02F HAZE    HX  91
CHILLICOTHE      N/A     83  70  64 VRB5      30.02S
6HR MIN TEMP:  71; 6HR MAX TEMP:  84;

KIRKSVILLE     MOSUNNY   82  68  62 NE5       30.01F
6HR MIN TEMP:  71; 6HR MAX TEMP:  82;


$$

MOZ041-047>049-056>058-063>065-088>090-097-131900-
...EASTERN AND SOUTHERN MISSOURI...

CITY           SKY/WX    TMP DP  RH WIND       PRES   REMARKS
ST. LOUIS INTL PTSUNNY   90  69  50 NW14      29.99S HX  94
6HR MIN TEMP:  81; 6HR MAX TEMP:  92;

SPIRIT OF STL  PTSUNNY   88  68  51 W8        29.98S HX  91
COLUMBIA       PTSUNNY   86  70  58 VRB3      30.02S HX  90
JEFFERSON CITY PTSUNNY   83  70  64 CALM      30.00S
HANNIBAL       PTSUNNY   82  66  57 NE3       30.00S
ROLLA          SUNNY     86  69  56 N10       30.02R HX  90
LEBANON        MOSUNNY   90  63  40 W12       30.03F HX  90
OSAGE BEACH    MOSUNNY   84  70  61 N7        30.01S
SPRINGFIELD    SUNNY     89  68  49 SW14      30.03F HX  93
BRANSON        MOSUNNY   91  68  46 W8        30.07F HX  95
NEVADA         MOSUNNY   86  70  58 SW8       30.01S HX  90
JOPLIN         SUNNY     93  63  36 SW16G24   30.00F HX  94
WEST PLAINS    SUNNY     86  70  58 SW9       30.07F HX  90
MALDEN         SUNNY     93  72  49 SW9       30.02F HX 100

$$

IAZ060-094-KSZ022-034>040-054-083-096-NEZ052-066-093-131900-
...KANSAS...SOUTHEAST NEBRASKA AND IOWA...

CITY           SKY/WX    TMP DP  RH WIND       PRES   REMARKS
TOPEKA         PTSUNNY   85  74  69 N7        30.03S HX  92
6HR MIN TEMP:  73; 6HR MAX TEMP:  85; 6HR PCP:  0.02;

MANHATTAN      MOSUNNY   85  69  58 NE12      30.04F
EMPORIA        PTSUNNY   83  69  62 NE9       30.04R
CHANUTE        MOSUNNY   87  65  47 W6        30.01S
WICHITA        PTSUNNY   85  69  58 N14       30.04S
OMAHA          MOSUNNY   86  66  51 N7        30.03F
LINCOLN        SUNNY     88  63  43 N9        30.05F
FALLS CITY     MOSUNNY   84  71  65 VRB3      30.03F
LAMONI         MOSUNNY   82  68  62 NW8       30.02F
DES MOINES     MOSUNNY   85  66  53 NW10      29.99F

$$



USA.gov is the U.S. government's official web portal to all federal, state and local government web resources and services.